GEFSSGP_500_meanwind_054.txt.gz
Wind_Speed
6 5 5 5 5 6 7 8 9 9 8 7 6 5 3 3 3 2 3 3 5 6 8 8 9 10 10 11 12 12 13 13 13 13 13 13 13 12 12 12 12 12 13 13 14 14 15 14 13
6 4 3 3 4 5 6 7 8 7 6 6 5 5 4 4 3 3 3 4 5 7 7 7 8 9 10 10 10 11 11 11 11 11 11 11 11 11 11 10 11 11 11 11 12 12 13 13 13
7 4 2 0 2 2 5 6 7 6 5 5 4 4 5 4 4 3 3 4 5 6 7 7 7 8 9 9 9 9 9 9 9 10 10 10 10 10 10 10 10 9 9 9 10 10 11 11 11
9 7 5 3 2 1 2 5 5 5 4 4 4 4 4 4 4 4 4 4 5 5 6 6 7 7 8 8 8 8 8 8 9 9 9 9 10 10 10 9 9 8 8 8 8 8 9 9 10
11 10 8 6 4 3 1 3 4 3 4 3 3 4 4 4 5 5 5 5 5 5 6 6 7 7 7 8 8 8 9 9 9 9 9 8 9 9 9 9 9 8 8 8 8 8 8 8 8
14 13 12 9 8 7 5 2 2 2 2 2 2 3 4 4 5 6 6 6 6 7 7 8 8 8 8 8 9 9 10 9 9 9 9 9 9 9 10 9 9 9 8 8 8 8 8 8 8
17 16 14 12 11 9 8 6 3 1 0 1 2 3 4 4 5 6 6 7 7 8 8 9 9 10 10 10 10 11 11 11 10 10 10 10 10 10 10 10 10 10 9 9 9 9 10 9 9
20 19 17 15 13 11 10 8 5 3 1 1 2 4 4 4 5 6 6 7 8 8 9 9 10 11 11 11 11 12 12 11 12 12 12 12 12 12 12 12 12 12 12 11 11 11 12 11 11
21 20 19 17 15 13 12 11 7 4 2 1 1 3 4 5 6 7 8 8 9 9 10 10 11 12 12 13 13 13 13 13 13 13 14 14 14 14 15 15 14 14 14 14 14 14 14 14 14
22 22 20 19 17 15 13 12 9 6 5 4 4 4 5 7 9 10 11 12 12 12 12 13 13 14 15 15 16 16 16 17 16 16 17 17 17 17 18 18 18 18 18 17 17 17 17 17 17
23 23 22 20 19 17 15 13 11 9 8 7 7 7 8 9 12 13 14 15 15 16 16 16 17 18 18 19 20 20 21 21 21 21 20 20 21 21 21 22 22 22 22 22 21 22 22 21 21
23 24 23 22 20 18 17 16 14 13 13 12 11 11 12 14 15 17 18 19 19 20 20 21 22 22 23 23 23 24 25 25 26 26 26 25 25 25 25 25 26 26 26 26 26 26 26 25 25
24 24 23 22 21 20 20 19 18 17 17 17 17 17 18 19 20 21 21 22 23 24 24 25 26 26 27 28 28 29 30 30 31 31 31 31 30 29 29 29 29 30 30 30 30 29 29 29 29
27 25 24 23 23 23 22 22 21 21 23 22 23 24 24 25 25 25 24 25 26 26 27 28 29 29 30 31 32 33 34 35 35 35 34 34 34 33 33 33 33 33 34 34 33 33 32 32 32
30 28 26 26 27 27 26 25 25 25 26 27 28 28 29 29 28 28 27 27 27 28 29 30 30 31 32 33 34 35 36 37 38 37 37 37 38 37 37 37 36 37 37 36 36 35 35 35 34
32 31 30 30 31 30 30 29 28 30 30 30 31 31 31 31 30 29 28 29 29 30 31 31 32 32 33 34 35 35 36 38 38 38 38 37 38 39 40 41 40 39 40 40 39 39 38 38 37
34 34 34 34 34 33 33 32 32 33 33 33 33 33 32 31 30 29 29 30 30 30 32 32 32 32 33 34 35 36 36 37 38 39 38 37 36 37 39 42 42 42 42 43 43 43 42 40 39
33 34 35 35 36 36 35 35 35 35 34 35 34 33 32 30 29 29 30 30 31 32 32 32 33 33 34 35 36 36 35 35 36 37 37 37 37 38 39 40 42 42 43 43 42 41 41 40 40
30 32 33 34 34 35 35 35 34 34 35 34 33 31 30 29 29 29 29 30 32 32 32 33 33 33 34 35 35 35 35 35 36 36 36 36 37 39 39 40 41 43 43 42 41 41 41 40 39
27 29 30 31 31 32 32 33 33 33 33 32 31 30 30 30 30 30 30 30 31 32 32 33 33 34 34 34 35 35 35 35 36 36 37 37 37 38 39 40 41 42 43 43 41 41 41 40 40
24 25 26 28 28 30 31 31 30 31 31 31 31 30 30 31 31 31 31 31 31 32 33 33 33 34 34 35 35 35 35 35 35 36 36 36 37 38 39 39 40 40 41 40 39 39 38 38 37
20 22 24 25 26 27 29 30 29 30 31 32 32 32 31 31 32 31 30 30 30 32 32 33 34 34 34 34 34 34 34 35 35 35 35 35 36 36 37 37 38 38 39 39 38 38 38 38 36
18 19 21 22 23 24 27 30 29 29 31 32 32 31 30 30 30 29 28 28 30 31 32 33 33 33 33 33 34 34 34 35 35 36 36 36 36 36 37 37 37 37 37 37 37 37 37 37 36
16 17 18 19 20 21 24 26 26 27 28 29 29 29 28 27 26 26 26 28 29 30 31 32 32 32 32 32 32 32 33 33 34 35 35 36 36 37 37 38 38 38 38 38 38 37 37 37 36
13 14 15 16 17 18 20 21 21 22 24 24 24 24 24 23 24 25 27 28 28 29 31 32 32 31 30 30 31 31 32 33 33 34 34 35 35 36 37 38 39 39 39 39 38 37 37 37 37
12 13 14 14 14 15 17 18 19 20 21 21 22 22 23 24 25 26 26 27 28 29 30 31 31 32 31 31 32 32 33 33 34 34 34 35 35 35 36 37 38 39 39 40 39 39 38 37 37
12 12 13 14 14 14 15 17 18 20 20 21 21 22 23 24 25 25 27 28 29 29 30 31 31 32 32 33 33 33 34 34 34 34 35 35 36 36 36 36 37 38 39 39 39 39 38 37 37
12 12 14 15 17 16 16 17 18 18 20 21 22 23 24 25 26 28 28 29 30 31 32 33 33 34 35 35 36 36 36 36 35 35 36 36 35 36 35 35 35 36 37 38 39 38 38 37 36
12 13 14 16 18 20 19 20 20 21 22 23 25 26 27 28 29 31 32 33 34 35 36 36 37 37 37 38 38 38 38 38 37 36 36 36 35 35 35 35 34 34 35 36 36 36 37 36 36
13 15 17 19 20 22 24 25 24 25 26 27 29 30 31 32 34 35 36 37 38 39 40 41 41 41 41 41 41 41 40 40 39 38 37 36 36 35 35 34 33 33 32 33 33 34 34 34 34

GEFSSGP_500_meanwind_060.txt.gz
Wind_Speed
9 9 10 10 9 9 6 6 6 6 6 5 5 4 3 2 2 3 3 3 3 3 4 5 4 4 5 5 6 6 7 7 7 7 7 7 7 7 7 6 6 6 6 6 7 7 7 8 8
6 7 7 8 10 5 3 4 5 6 6 5 5 4 3 3 2 2 2 1 1 1 2 2 2 3 3 4 5 6 6 6 6 6 6 6 5 5 5 4 4 4 4 4 4 5 5 6 6
5 4 4 6 6 3 2 1 2 4 5 5 5 4 3 2 2 1 0 1 1 1 1 2 2 3 4 5 6 7 7 7 6 6 5 5 5 4 4 3 3 2 2 3 3 3 3 3 4
4 3 1 2 2 3 3 3 2 2 3 4 4 3 3 2 1 0 1 2 3 3 3 3 4 6 6 7 7 8 8 8 8 7 7 6 5 5 4 4 3 3 3 3 4 3 3 3 3
7 5 3 2 3 2 4 4 4 3 3 3 3 3 2 2 2 2 2 3 4 4 4 5 6 7 8 9 9 9 10 10 9 9 8 8 7 7 6 6 5 5 5 5 6 6 5 5 5
10 8 7 7 7 5 5 5 5 5 4 3 3 3 3 3 3 3 4 4 5 5 5 6 7 8 9 10 10 10 11 11 11 10 10 10 10 9 9 8 8 8 8 8 8 8 8 8 8
14 13 12 11 10 8 6 6 7 7 6 4 3 3 3 3 3 3 4 5 5 6 6 7 9 9 10 11 11 11 12 12 12 12 12 12 12 12 12 12 11 11 11 11 11 11 11 11 11
17 15 15 14 13 11 8 7 7 7 6 5 4 3 3 3 3 4 5 5 6 8 9 10 11 12 13 13 13 14 14 14 14 14 14 15 15 15 15 15 15 15 15 15 14 14 14 14 14
19 18 17 17 15 13 10 8 8 8 7 6 5 5 5 5 6 6 7 8 10 11 13 13 15 16 17 18 18 18 18 18 18 18 18 18 18 19 19 19 19 19 19 19 19 18 18 18 18
20 19 20 19 16 15 12 10 10 9 8 8 8 8 8 8 9 10 11 12 14 15 16 17 19 20 21 22 22 22 22 22 23 23 23 23 23 23 23 23 23 23 23 23 23 22 22 22 22
21 22 22 19 18 16 15 13 11 10 10 10 10 10 11 12 13 14 15 17 18 19 20 22 23 24 24 25 25 26 26 26 26 26 26 27 27 28 28 28 28 28 27 27 27 26 26 25 25
23 23 22 20 19 18 17 16 14 13 14 12 12 12 14 15 17 18 19 21 22 23 24 25 26 26 27 27 28 28 29 29 30 30 29 30 31 31 32 32 33 33 32 32 32 31 31 30 29
26 24 23 22 21 20 19 18 17 17 16 15 15 16 17 18 20 22 23 24 25 26 27 28 28 28 28 29 30 30 30 31 32 32 32 32 33 34 34 35 35 35 36 36 36 36 35 35 34
28 26 25 25 24 23 21 21 20 20 20 20 20 20 21 23 24 26 27 28 29 30 30 30 30 29 30 30 30 30 31 31 31 32 32 33 33 34 35 35 36 38 39 40 40 39 39 38 37
30 28 27 27 27 26 24 24 25 23 23 23 24 24 25 27 28 29 30 31 32 32 33 32 31 31 31 31 31 31 30 30 30 31 31 32 33 33 34 34 34 36 38 39 41 42 42 41 40
30 29 28 31 30 29 27 27 30 27 27 27 28 28 29 30 31 32 32 33 34 34 34 34 32 32 32 32 32 32 31 31 30 30 30 31 32 32 32 33 33 35 36 37 39 40 41 42 42
29 30 30 33 33 32 31 32 34 30 30 31 31 31 32 32 33 33 34 35 35 35 35 34 33 33 33 33 33 32 30 29 28 28 28 29 30 30 31 31 32 33 35 37 38 39 41 41 42
27 29 31 34 35 34 34 36 36 35 34 34 34 34 33 33 34 34 34 35 35 36 36 35 34 33 33 33 32 31 29 28 27 27 27 28 29 29 30 30 31 33 34 36 37 38 40 41 41
26 27 28 33 34 34 36 36 37 36 36 36 35 34 33 33 34 34 34 35 35 36 35 35 34 34 34 33 31 29 28 27 27 27 27 27 27 28 29 29 30 32 34 34 36 37 39 39 40
20 21 24 29 31 32 34 34 35 35 35 34 33 33 32 32 33 34 34 35 36 36 36 36 36 35 34 33 31 29 28 27 27 26 25 25 26 27 28 28 29 31 32 33 34 36 37 37 38
13 15 18 22 25 27 29 28 31 31 31 31 31 31 31 32 32 33 34 35 36 37 37 36 36 35 34 33 31 29 28 27 27 26 26 25 26 26 27 28 29 30 32 32 34 36 37 37 37
9 14 16 18 18 18 22 17 25 27 27 28 29 29 30 31 32 34 34 35 35 36 36 36 35 35 34 34 32 31 30 29 28 28 27 27 26 27 27 28 29 30 31 32 34 35 37 37 37
11 13 14 16 16 16 18 16 19 25 24 26 27 27 28 29 31 32 33 34 34 34 35 35 35 36 36 35 34 32 31 30 29 28 28 28 27 27 28 28 29 30 31 32 33 35 36 37 38
11 12 12 12 12 12 15 13 15 20 20 22 23 24 25 26 27 29 31 32 33 34 35 35 36 37 36 36 35 33 32 32 31 30 30 30 29 29 29 29 29 30 31 32 33 34 35 36 37
10 9 9 10 9 11 15 13 16 17 17 18 19 21 23 24 26 27 29 32 33 34 36 37 37 37 37 37 36 34 34 33 33 32 32 31 31 31 30 30 30 31 31 32 32 34 35 35 36
10 9 9 10 10 12 16 15 17 17 17 18 20 21 23 25 27 29 31 33 34 36 37 37 38 38 38 38 37 36 36 35 35 35 34 33 33 32 32 32 32 32 32 32 33 33 34 35 35
9 9 11 12 12 13 13 19 19 19 20 21 22 23 25 27 29 31 33 34 36 37 38 39 39 39 39 39 39 38 38 38 37 37 36 36 35 34 33 33 33 33 33 33 33 33 34 34 34
10 11 12 13 14 13 15 18 22 21 22 23 26 28 30 32 33 34 35 37 38 39 41 41 42 42 43 42 42 42 41 40 39 39 38 37 37 36 35 34 34 34 34 33 34 33 33 33 33
14 14 14 15 17 17 17 21 25 25 26 29 30 32 34 36 37 39 40 41 42 43 44 45 45 46 46 46 46 45 45 44 43 42 41 39 38 37 36 35 35 35 34 34 34 34 33 32 32
15 17 18 19 20 22 22 27 25 28 30 32 33 35 36 38 39 41 42 43 44 46 47 48 49 50 50 51 50 50 49 49 48 46 44 42 41 39 37 36 36 35 35 34 34 33 33 32 31

GEFSSGP_500_meanwind_066.txt.gz
Wind_Speed
16 16 14 13 13 15 5 2 3 3 4 4 5 5 6 4 3 3 3 2 2 3 2 3 3 4 5 6 6 7 9 10 10 10 10 9 9 8 8 8 7 7 7 7 7 7 7 8 8
13 12 10 10 13 11 3 5 4 4 4 5 6 6 6 5 5 4 4 4 4 4 4 4 5 5 6 6 7 8 9 10 11 11 11 11 10 9 9 8 8 7 7 7 7 7 6 6 6
9 8 8 10 12 7 5 6 5 5 4 5 6 6 6 5 5 5 5 5 5 6 6 6 7 7 7 8 9 10 10 11 12 12 12 12 11 11 10 10 9 9 8 8 8 7 7 7 6
6 6 6 9 5 3 6 7 5 6 6 6 7 7 7 7 6 6 6 6 6 7 7 8 9 9 9 10 10 11 12 13 13 14 14 13 13 12 12 11 11 11 10 10 10 9 8 8 8
4 3 7 6 1 2 7 7 7 8 8 8 9 8 8 8 8 8 7 7 7 8 8 9 9 10 10 11 12 13 13 14 14 15 15 14 14 13 13 13 13 12 12 12 12 11 11 10 10
5 4 3 9 7 4 8 9 8 9 9 9 10 10 10 10 10 9 9 9 9 8 9 9 10 10 11 11 13 13 14 15 16 16 16 16 16 15 15 15 15 15 15 14 14 14 13 13 13
7 6 2 6 10 8 11 10 10 11 9 10 12 12 11 11 10 10 10 10 10 9 9 9 10 11 12 13 14 15 16 17 18 18 18 18 18 18 18 17 17 17 17 17 17 16 16 16 16
9 8 5 4 12 11 12 11 12 14 13 12 12 14 12 11 10 10 10 10 10 10 10 11 12 14 15 16 17 18 19 20 21 21 21 21 21 21 21 20 20 20 20 20 20 20 19 19 19
12 10 5 5 12 11 11 10 11 15 16 15 15 15 13 11 10 10 10 10 11 12 13 14 15 16 17 18 19 20 21 22 23 23 23 24 24 24 24 23 23 23 23 23 23 23 23 23 23
15 13 8 8 12 10 11 10 12 13 15 17 17 14 13 12 12 11 12 13 14 15 16 16 18 19 20 20 22 22 23 24 24 24 25 26 26 26 26 26 26 26 26 26 26 26 26 27 26
18 17 15 15 17 19 16 13 14 13 17 22 22 16 12 14 15 15 15 15 16 17 19 20 20 21 22 23 24 24 25 25 25 26 26 27 27 27 27 27 28 29 29 29 29 29 29 30 30
21 21 22 23 23 23 21 18 16 15 21 26 27 21 14 16 18 18 18 19 19 21 22 23 24 25 25 26 26 26 26 26 26 26 26 27 27 28 28 29 30 30 31 31 32 33 32 32 33
23 24 25 25 25 24 23 20 19 19 23 27 28 27 22 20 22 22 22 23 23 24 25 27 27 28 29 29 29 28 28 28 28 28 28 28 28 29 29 29 30 31 31 31 32 32 32 33 34
24 26 26 25 25 25 24 21 21 20 25 27 28 29 27 25 26 26 26 27 27 28 29 30 31 31 31 31 30 30 29 29 30 30 29 29 29 29 29 29 30 30 31 31 30 31 31 32 33
24 25 26 25 24 23 24 23 21 20 25 27 28 29 29 29 28 29 30 30 31 32 32 32 33 33 33 33 32 31 31 31 30 30 30 29 28 28 28 29 29 29 29 29 30 30 31 31 31
19 21 22 20 19 19 23 24 21 21 28 30 30 30 30 32 31 32 33 33 34 35 35 35 36 35 35 34 33 33 32 31 30 30 29 28 27 28 29 29 29 29 28 29 29 29 30 30 30
12 15 15 13 15 19 23 23 22 25 29 32 33 31 31 34 35 35 35 35 36 37 36 36 37 37 36 35 34 34 32 31 31 30 29 28 28 28 28 28 28 27 27 28 28 28 29 29 29
9 11 12 12 15 23 24 23 22 26 30 32 32 33 34 34 35 35 36 38 38 37 37 37 37 37 37 36 35 34 32 31 30 29 29 28 27 27 27 27 26 26 26 27 27 28 28 28 28
16 16 13 13 21 28 27 23 23 28 33 34 34 35 37 36 38 38 39 38 37 38 37 36 38 38 38 38 36 34 33 32 31 30 29 28 27 27 26 26 26 26 26 26 27 27 27 27 28
12 12 13 15 21 28 29 25 24 29 30 31 32 34 35 37 38 37 37 38 37 37 36 36 37 37 37 38 36 36 33 32 31 30 29 28 27 27 26 26 26 26 26 26 26 27 26 27 28
5 9 13 17 20 21 19 19 20 25 26 26 25 27 31 34 36 35 36 36 36 36 36 35 36 37 38 37 37 36 34 32 31 30 29 28 28 27 27 27 27 27 26 27 27 27 27 27 28
10 14 16 17 19 17 15 18 19 24 28 28 24 25 28 30 29 30 33 34 34 34 36 36 37 38 38 37 37 35 34 33 32 31 29 28 28 28 28 28 29 29 28 28 28 28 28 28 28
12 15 14 13 14 14 14 17 21 26 27 27 24 26 28 25 26 29 31 32 32 35 35 36 37 38 38 38 38 37 35 34 33 32 30 30 29 29 29 30 30 30 30 30 30 29 29 29 29
9 9 8 11 14 18 20 20 21 24 25 27 28 30 31 30 28 29 31 32 33 34 35 35 37 38 39 39 40 38 37 35 35 34 33 32 32 31 31 31 31 32 32 32 31 31 31 31 31
12 10 11 17 19 20 16 12 18 21 23 26 29 31 31 31 30 31 31 32 33 34 35 37 39 40 41 41 41 40 39 38 37 36 36 35 34 34 33 33 33 33 34 34 33 33 33 32 32
10 9 11 16 18 20 22 16 19 23 24 25 26 28 31 33 34 34 35 36 37 38 39 41 42 43 44 44 44 44 44 43 42 41 40 38 37 37 37 36 36 36 36 36 35 35 34 34 33
10 9 11 14 14 13 16 24 27 24 24 24 25 29 33 36 37 38 39 40 42 43 44 45 46 47 48 48 49 49 48 48 47 46 44 43 42 41 40 39 38 38 38 38 37 37 36 35 35
12 13 13 15 16 15 15 27 31 33 29 27 30 34 36 38 40 41 42 43 44 46 48 48 50 51 52 52 53 53 53 53 53 52 51 49 47 45 44 42 42 40 39 40 39 38 38 37 36
12 13 14 18 19 20 21 27 32 33 33 33 37 39 41 43 45 47 48 47 48 49 51 52 53 54 55 56 56 57 57 57 57 56 55 53 52 50 48 47 45 44 42 41 40 40 39 38 37
13 15 17 19 20 21 23 29 32 34 35 37 42 44 46 47 49 51 52 52 52 53 54 55 56 57 58 59 59 60 60 61 60 60 59 58 57 55 53 51 50 48 46 44 42 41 40 39 37

GEFSSGP_500_meanwind_072.txt.gz
Wind_Speed
12 11 10 9 8 6 6 7 5 5 5 6 7 8 7 6 4 3 3 1 2 2 3 3 4 4 5 5 5 6 6 7 8 8 9 9 10 10 10 10 10 10 10 9 9 9 8 8 8
10 8 7 7 6 5 5 6 5 5 5 5 4 5 6 5 5 4 4 3 3 3 4 4 4 4 4 5 5 5 6 6 7 7 8 9 9 9 10 10 10 10 10 10 9 9 9 8 8
8 6 5 5 4 3 3 3 4 6 7 6 4 4 5 5 6 6 5 5 5 5 5 5 5 5 5 5 5 6 6 6 7 7 8 9 9 9 9 10 10 10 10 10 10 10 10 9 9
6 5 3 2 1 1 0 1 4 5 6 7 6 5 5 6 7 7 7 7 7 6 6 6 6 6 6 6 6 6 7 7 8 8 9 9 10 10 10 10 10 11 11 11 11 10 10 10 10
8 6 5 6 4 4 4 4 4 5 7 8 8 7 7 8 8 8 9 9 8 8 8 7 7 7 6 7 7 8 8 9 10 10 10 10 11 11 11 11 12 12 12 12 12 12 11 11 11
10 8 7 9 8 6 6 8 7 7 7 8 9 9 9 8 9 10 10 9 9 9 9 8 8 8 8 9 10 10 11 11 12 12 12 12 13 13 13 14 14 14 14 14 14 13 13 13 13
13 10 8 8 7 7 9 10 10 10 9 10 10 11 11 9 9 10 11 10 10 10 10 9 10 10 11 11 12 12 13 14 14 14 15 15 15 16 16 16 16 16 16 16 16 16 16 16 16
15 13 10 8 7 6 8 10 12 12 13 12 12 13 14 12 11 10 12 11 10 11 11 11 11 12 12 13 14 15 15 15 16 16 17 18 18 18 18 19 19 19 19 19 19 19 19 19 19
18 17 15 12 10 6 6 9 12 13 13 14 14 15 15 15 13 11 12 13 13 12 12 12 13 13 14 14 15 16 17 17 18 18 19 20 20 20 20 21 21 21 21 21 21 21 21 21 22
20 19 19 19 15 11 8 9 13 15 15 16 17 18 18 18 16 15 14 15 16 15 14 14 15 15 16 16 17 18 18 19 19 19 20 20 21 21 22 22 22 22 22 22 23 23 23 24 24
22 21 24 24 21 18 15 14 16 18 19 19 21 22 22 21 19 18 17 18 19 18 17 17 17 18 18 19 19 20 20 20 20 21 21 21 21 21 22 22 23 24 24 24 24 24 24 25 25
23 22 27 29 28 25 22 21 22 23 22 24 25 26 26 25 24 24 24 22 21 21 19 20 20 21 21 22 22 22 22 22 22 22 22 23 23 23 23 24 25 25 25 25 25 25 25 25 26
22 22 27 30 32 30 28 27 27 27 27 29 30 30 29 30 28 28 28 25 26 23 22 22 23 23 23 24 23 24 24 23 23 23 23 23 24 24 24 25 25 25 25 25 25 25 24 25 26
21 22 22 24 28 30 30 29 30 29 29 31 31 32 32 32 31 31 30 29 30 28 26 26 25 26 25 26 26 25 25 25 24 24 24 24 24 25 25 25 24 24 24 24 24 24 23 23 23
19 19 18 18 21 22 26 28 28 28 28 30 31 32 33 33 34 33 33 34 34 31 30 28 27 27 27 28 27 26 26 26 26 26 26 25 25 25 25 24 24 24 24 24 23 23 22 22 21
17 17 15 13 16 16 22 23 22 24 27 28 30 31 33 35 36 36 35 35 34 32 31 30 28 28 29 29 27 28 28 28 28 28 27 27 26 26 26 25 25 25 25 24 23 23 21 21 21
15 14 13 12 12 14 17 17 16 21 24 26 28 31 33 36 38 39 38 37 36 35 33 31 30 29 29 29 28 29 29 30 30 29 28 27 27 26 26 26 25 25 24 24 23 22 21 20 19
14 14 13 13 11 13 15 17 19 22 24 26 29 32 36 38 39 40 40 38 39 36 32 26 26 28 28 29 27 28 29 30 31 29 29 29 28 27 26 26 26 25 24 24 23 22 21 20 19
11 12 12 13 13 15 17 18 20 23 27 31 32 34 37 39 40 40 39 39 38 34 30 27 27 28 28 29 29 29 30 30 30 29 29 29 28 27 27 26 26 25 25 24 23 23 22 22 20
10 13 16 17 18 19 21 22 24 27 30 32 34 36 37 39 40 38 36 36 37 33 29 30 29 29 29 29 29 29 30 30 29 28 28 28 28 28 28 27 26 26 26 25 25 23 23 22 21
11 14 17 19 20 22 23 24 28 31 32 33 34 34 35 35 34 32 33 34 33 32 29 28 29 28 29 29 29 30 30 29 28 27 28 28 28 29 29 26 26 27 27 27 26 25 24 23 22
11 13 16 19 21 23 24 26 27 30 32 33 33 32 32 30 31 31 31 32 32 31 31 29 29 30 30 31 31 30 30 31 30 30 30 30 30 30 29 28 28 28 28 28 27 27 26 25 24
9 12 14 15 17 20 21 24 25 28 30 31 33 32 31 30 32 32 31 31 31 30 30 30 30 31 32 32 32 33 33 33 33 33 33 32 32 32 31 30 31 31 30 30 30 29 28 27 26
9 10 11 13 14 16 18 20 22 22 24 27 28 29 29 27 29 30 30 30 30 30 32 33 33 34 34 35 35 36 36 36 37 37 37 36 36 35 35 34 34 34 33 33 32 31 31 30 29
10 11 11 10 12 14 16 18 19 20 22 21 21 21 24 26 27 29 31 32 33 34 35 37 38 39 39 40 41 42 42 42 42 42 42 41 40 40 40 39 38 37 37 37 36 35 34 33 32
8 10 11 13 13 15 17 19 20 22 22 23 23 24 24 23 26 30 33 34 36 39 41 42 44 45 45 46 47 48 47 47 47 47 47 46 46 45 44 44 42 41 41 40 39 38 37 36 35
10 12 14 16 17 18 19 20 21 24 25 26 27 28 28 28 31 34 36 38 40 43 45 46 48 49 50 51 51 52 52 52 53 52 52 51 51 50 49 48 47 46 44 44 42 40 40 39 38
13 15 15 17 19 19 21 22 25 27 28 31 33 35 36 36 39 40 41 43 46 47 49 50 52 52 53 54 55 55 55 56 56 56 56 56 55 54 53 52 51 50 49 47 46 44 43 42 41
13 15 16 17 19 22 24 26 27 29 32 35 38 40 40 43 45 47 48 50 52 53 54 55 56 56 57 57 58 58 58 59 59 59 59 59 59 59 58 57 55 54 53 52 50 48 46 45 44
15 17 18 18 21 23 26 29 31 33 36 39 41 43 45 47 49 51 53 55 56 58 59 60 61 61 61 61 61 61 61 62 62 62 62 62 62 62 61 60 59 59 58 56 54 52 50 48 46

GEFSSGP_500_meanwind_078.txt.gz
Wind_Speed
5 5 4 3 1 1 1 3 2 3 3 4 3 2 2 2 3 4 5 6 7 7 7 7 8 8 8 7 6 6 5 5 4 4 4 4 5 5 5 5 5 5 5 5 5 5 5 5 5
6 5 4 4 3 2 2 3 4 4 5 5 5 4 4 3 4 5 6 7 8 8 9 9 9 9 9 8 8 7 6 6 5 5 5 6 6 6 6 5 5 5 5 5 5 4 4 4 3
8 7 6 5 5 4 3 4 4 4 4 4 5 5 5 5 5 6 7 9 9 10 10 11 11 10 10 9 8 8 7 7 7 7 7 8 8 8 7 7 7 7 6 6 6 5 5 4 4
10 10 8 7 6 6 6 6 5 5 4 4 5 6 6 7 7 8 9 9 10 11 12 12 12 12 11 10 10 9 9 9 9 9 10 10 10 10 10 9 9 9 9 8 8 8 7 7 6
13 12 12 11 10 9 9 9 8 8 5 5 6 6 7 8 8 9 10 11 11 12 12 13 13 12 12 11 11 12 12 12 12 12 12 13 13 13 13 13 13 12 12 12 11 11 10 10 9
16 16 15 15 14 13 13 13 11 10 8 7 7 7 8 8 9 10 11 12 12 12 13 14 14 13 13 13 13 13 14 14 14 14 14 15 15 15 15 15 16 15 15 15 15 14 14 13 12
19 18 18 18 18 16 16 16 15 13 11 9 9 9 9 9 9 10 11 12 12 13 14 14 15 15 15 15 14 14 15 15 16 16 16 16 17 17 17 17 18 18 18 18 18 18 17 16 16
21 21 21 21 21 20 20 19 18 16 13 12 11 11 10 9 10 11 12 12 13 14 15 16 17 17 17 17 17 16 17 17 17 18 18 18 18 18 19 19 19 19 19 19 19 19 20 19 19
23 23 22 23 24 23 23 22 20 18 16 14 13 12 12 11 12 13 14 14 14 16 17 18 18 19 19 19 20 20 19 19 19 19 19 19 20 20 20 20 20 20 20 20 19 20 20 20 20
23 23 23 26 28 27 25 24 23 21 19 18 17 16 15 14 14 16 17 17 18 19 20 20 21 21 22 22 23 23 22 21 21 21 21 21 21 21 21 21 21 20 20 20 19 20 21 21 21
23 22 24 27 29 29 28 26 26 25 23 22 21 19 18 18 19 20 20 21 21 22 23 23 23 24 25 25 26 25 24 23 23 23 23 22 22 22 22 22 22 22 21 21 21 21 22 22 22
24 22 24 26 30 31 30 29 29 28 27 26 24 22 21 21 22 23 24 24 24 25 25 26 26 27 27 27 27 27 26 25 25 25 25 25 24 24 23 23 23 23 23 23 22 22 22 22 22
24 23 23 25 29 32 32 32 32 31 30 29 27 25 24 24 25 25 25 25 25 26 27 28 29 30 31 30 30 29 28 28 28 27 27 27 26 25 24 23 24 25 24 24 24 23 23 22 22
24 23 23 25 28 32 34 34 34 33 32 31 29 28 27 26 27 26 25 25 26 27 28 29 31 32 35 35 33 33 32 32 32 30 29 27 27 27 26 25 25 25 25 24 24 24 23 22 22
23 23 23 25 27 30 33 34 35 34 34 33 32 31 30 30 28 27 26 25 28 29 30 32 33 32 34 36 35 35 33 33 33 32 30 28 28 28 27 26 26 25 26 25 25 25 24 23 23
21 22 23 24 26 28 30 31 32 33 33 33 33 31 31 30 29 28 29 28 29 30 32 34 35 34 35 36 36 36 35 35 34 32 30 29 30 30 28 27 26 25 26 26 26 25 24 23 23
20 21 22 24 25 27 28 29 28 28 29 29 30 29 29 29 29 29 29 30 32 34 36 37 37 36 37 36 36 34 32 32 32 32 31 31 31 30 29 28 27 27 27 26 26 25 25 24 23
19 20 21 22 24 25 26 26 27 25 26 26 27 28 28 29 31 31 32 34 35 36 38 38 37 37 35 36 36 35 32 29 29 31 29 28 29 29 29 28 27 27 26 27 26 26 25 24 23
19 20 20 22 23 24 25 24 24 23 23 24 26 28 29 31 33 34 35 37 38 38 38 37 35 36 36 34 31 28 26 26 28 27 26 26 27 29 28 27 27 27 27 27 25 25 25 25 24
18 18 19 21 22 24 25 23 22 22 23 25 27 28 30 32 35 38 39 39 38 37 36 35 35 35 33 31 28 25 25 25 25 26 26 26 27 27 28 28 28 27 26 26 27 26 25 25 25
16 16 17 18 19 21 23 23 22 22 24 26 28 30 32 34 35 37 38 37 37 37 38 36 35 35 32 30 29 30 28 26 26 26 27 28 28 27 28 27 27 28 27 27 27 27 26 26 25
12 14 15 16 17 19 20 21 21 23 26 27 28 29 31 32 33 34 35 35 36 36 35 36 36 35 33 33 33 32 30 29 29 29 30 31 32 31 30 30 30 30 30 29 28 28 28 27 26
11 13 14 15 15 17 18 20 20 22 24 25 27 27 29 30 30 31 32 32 33 34 35 36 37 37 37 37 36 35 35 33 33 33 34 36 37 36 36 35 34 33 33 32 31 31 30 30 29
11 12 12 13 14 15 16 17 18 19 20 22 23 25 27 27 28 29 29 30 32 34 35 36 37 39 40 40 40 40 40 39 38 38 39 39 39 39 40 39 39 38 37 36 36 34 33 33 33
12 13 13 13 12 13 14 15 17 18 19 21 23 26 27 28 29 28 29 31 33 35 37 38 40 41 42 43 44 44 44 44 43 44 44 44 44 43 44 43 43 42 42 40 40 39 38 37 36
13 13 13 14 14 14 15 16 17 19 21 23 25 27 28 29 31 32 33 34 36 37 39 41 42 44 45 46 47 47 48 49 49 49 49 49 49 48 47 47 47 47 46 45 44 43 43 42 41
12 12 13 15 16 16 17 18 19 21 23 24 26 28 30 32 34 35 36 37 38 40 42 43 45 46 47 48 49 50 51 52 53 53 53 53 53 52 52 51 51 51 50 50 49 48 47 47 45
11 13 15 17 19 19 20 20 22 24 26 27 29 31 33 35 36 38 39 40 42 43 45 46 47 48 50 51 52 52 53 54 55 56 56 56 56 56 56 56 55 55 54 54 53 52 51 50 49
12 14 15 17 18 21 23 23 25 27 29 31 33 35 37 38 40 41 43 45 46 47 48 49 50 51 52 53 53 54 54 55 55 56 56 57 57 58 58 59 59 58 58 58 57 56 55 54 53
13 15 17 18 20 22 24 26 27 30 32 34 36 38 40 42 44 46 47 49 50 50 51 52 53 54 55 55 56 56 56 56 56 56 56 56 56 57 58 59 59 60 60 61 61 60 59 58 57

GEFSSGP_500_meanwind_084.txt.gz
Wind_Speed
1 1 1 1 2 3 3 3 3 3 2 3 2 3 3 4 4 5 5 5 5 6 7 7 7 7 8 9 10 10 10 9 9 8 7 6 6 5 4 3 3 2 1 1 1 1 1 0 0
2 2 2 2 2 3 6 5 5 5 4 4 5 4 4 5 5 5 6 6 6 7 8 8 8 8 9 10 11 11 11 10 10 9 9 8 8 7 7 6 5 4 4 4 3 3 3 3 2
5 5 5 5 5 6 7 7 8 7 7 7 7 6 6 5 6 7 7 7 7 8 8 8 9 9 10 11 11 11 11 11 11 11 11 11 10 10 9 8 7 7 7 6 6 5 5 5 5
8 8 8 8 9 10 10 10 10 10 10 10 9 8 8 7 8 8 8 8 8 8 9 9 10 10 11 12 12 12 12 12 12 12 13 12 12 12 11 10 10 9 9 9 9 8 8 8 7
12 11 10 10 13 14 14 13 12 12 12 12 11 11 10 10 10 10 10 9 9 10 10 10 10 11 12 12 13 13 14 14 14 14 14 14 14 13 13 13 12 12 11 11 11 11 11 10 10
15 14 13 13 17 17 18 16 15 14 14 13 13 13 13 12 12 12 11 12 12 11 11 11 11 12 12 13 14 15 16 16 16 16 16 16 16 16 15 15 15 14 13 13 13 13 13 13 13
17 17 17 18 19 21 21 19 18 16 15 14 14 15 15 14 14 13 13 13 12 12 12 12 13 14 15 16 16 17 18 18 19 19 19 18 18 18 18 17 16 15 15 15 15 15 15 15 15
19 19 19 20 21 23 23 21 19 17 16 15 15 15 16 15 14 14 14 14 13 14 14 14 15 16 18 19 19 20 21 21 21 22 22 21 21 21 20 19 18 18 17 16 16 16 17 17 17
20 21 20 22 24 24 24 23 21 19 19 17 16 16 16 16 16 16 17 17 17 17 18 18 19 20 21 21 22 23 24 24 24 25 25 24 24 23 23 22 21 20 19 18 18 18 18 18 18
21 21 22 24 24 25 25 25 24 21 20 20 19 19 19 19 19 20 19 20 20 21 21 21 22 23 24 24 25 26 27 27 28 28 28 28 27 26 25 24 23 22 21 20 20 19 19 18 18
21 21 22 24 25 25 26 26 26 24 23 23 22 22 22 22 22 22 23 23 23 23 24 24 25 25 26 27 27 28 29 29 30 31 32 31 30 30 29 27 25 24 23 22 21 21 20 19 19
22 21 22 23 24 24 26 27 28 28 27 26 25 25 24 24 25 25 25 25 24 26 26 27 28 28 28 29 30 30 31 31 33 33 33 33 33 32 32 30 28 27 25 24 24 22 22 21 21
23 22 22 22 24 24 25 27 29 30 30 29 28 28 27 27 27 28 28 28 28 29 29 30 30 30 31 31 31 32 32 33 34 34 35 35 34 33 34 32 31 29 28 27 26 24 23 23 23
22 22 22 22 23 23 24 26 28 29 30 30 30 30 29 29 30 30 30 30 31 32 32 32 32 32 33 33 34 34 34 35 34 35 36 37 36 34 35 35 33 32 31 30 28 27 25 24 22
21 21 22 22 22 23 23 24 26 27 29 30 30 30 31 31 31 32 32 32 33 34 34 34 34 35 35 36 36 36 35 35 35 35 36 37 37 37 35 36 35 34 32 31 30 28 26 24 23
20 19 19 22 21 22 21 23 24 25 26 27 27 28 28 29 30 30 32 33 34 35 36 36 36 38 38 38 38 37 37 37 36 36 36 37 36 36 36 36 36 35 35 33 32 30 27 26 24
16 15 15 20 20 20 20 23 24 24 24 25 24 25 25 26 28 30 31 32 33 35 37 37 38 40 41 41 42 39 38 38 37 36 37 36 36 35 35 35 36 35 36 34 32 30 29 27 26
13 13 14 17 18 19 20 22 23 23 24 24 24 24 24 25 27 29 31 32 35 36 38 39 40 42 42 43 42 40 39 38 36 36 35 34 33 33 33 33 32 32 33 32 31 31 29 29 27
14 13 13 16 17 18 19 21 22 22 23 23 24 25 26 27 28 29 31 34 36 37 38 40 41 41 42 42 41 39 38 37 36 35 33 33 33 32 31 30 31 30 30 30 30 29 29 28 27
11 11 12 14 15 16 18 19 20 21 21 21 22 23 24 26 28 30 32 34 35 36 38 40 41 42 41 40 38 37 36 35 34 32 31 31 32 30 29 29 29 29 28 28 28 30 30 29 28
8 8 9 12 13 13 14 15 15 16 17 19 20 21 23 25 28 30 32 33 34 35 37 39 40 40 39 38 37 36 35 34 34 33 32 31 31 30 29 30 30 30 29 28 28 28 29 30 30
7 9 9 10 10 11 11 12 17 16 17 18 20 21 23 25 26 29 31 32 33 35 36 37 37 37 38 38 38 38 38 38 37 36 34 33 33 33 32 32 33 32 32 31 31 30 31 31 31
8 8 9 9 9 10 12 10 18 17 18 19 21 23 24 26 28 29 31 33 34 35 36 36 37 38 39 39 40 41 41 41 40 39 38 37 36 36 37 37 36 36 36 35 34 34 34 34 34
8 8 9 10 9 10 13 12 18 18 19 21 22 24 25 27 29 31 32 33 35 36 37 38 39 40 41 42 43 44 44 44 43 43 42 42 41 41 41 41 41 40 41 40 40 39 39 38 38
8 8 9 9 9 12 16 15 17 19 20 22 23 25 26 28 30 31 33 35 36 38 39 40 41 42 43 44 45 46 46 46 46 46 46 46 46 46 45 46 46 46 46 45 45 45 44 44 43
8 8 8 9 10 14 17 17 17 19 21 23 25 26 28 30 32 34 35 36 38 39 41 42 43 43 44 45 46 47 47 47 48 48 49 50 50 50 50 50 51 51 51 50 50 50 49 48 48
8 8 9 10 12 12 16 18 18 20 23 24 26 28 30 32 33 35 37 38 40 41 42 43 43 44 45 46 47 48 48 49 49 50 51 52 53 53 54 54 55 55 55 55 55 54 54 53 52
9 10 10 10 11 11 15 19 20 22 24 26 28 30 32 33 36 37 39 40 41 41 42 43 44 45 46 48 48 49 49 50 51 52 53 54 55 55 56 57 57 58 58 59 59 59 58 58 57
9 9 10 11 11 12 14 20 21 23 25 27 29 31 34 36 38 39 40 41 41 42 43 44 45 46 47 48 49 49 50 51 52 53 54 55 56 56 57 58 59 59 60 60 61 61 62 61 61
9 9 10 11 13 14 16 21 21 24 26 29 31 34 36 37 39 40 41 42 43 43 44 45 46 47 48 49 49 50 50 51 52 53 53 54 55 56 57 57 58 59 60 60 61 62 63 63 64

GEFSSGP_500_meanwind_090.txt.gz
Wind_Speed
5 5 5 5 5 4 7 5 4 6 8 9 8 7 9 10 10 10 10 10 10 10 10 9 9 9 8 8 9 9 9 10 9 10 10 10 9 9 9 9 9 8 8 7 7 6 6 5 5
5 5 4 4 5 9 9 7 8 10 10 10 10 10 12 11 11 11 10 11 11 11 11 10 10 10 10 10 10 10 10 10 10 10 10 11 11 11 10 10 10 9 9 8 8 7 7 7 6
5 4 4 5 8 11 11 10 10 12 12 11 12 12 12 12 12 12 12 12 12 12 11 11 11 11 11 11 11 11 11 11 11 11 11 12 12 12 12 11 11 10 10 10 9 9 9 8 8
6 5 4 4 5 6 9 12 10 11 13 13 11 13 14 14 14 14 13 13 13 13 13 13 13 13 12 12 11 12 12 12 13 13 13 13 13 13 13 13 12 12 12 12 11 11 11 10 10
8 6 4 6 7 7 11 13 12 10 12 11 12 15 16 15 15 16 16 16 15 14 14 14 13 13 13 13 13 13 14 15 15 15 15 15 15 15 15 14 14 14 13 13 13 13 13 13 12
11 9 5 5 9 10 12 16 13 11 12 11 10 15 18 17 16 17 17 17 16 15 14 14 14 14 14 15 15 16 16 17 18 18 17 17 17 17 17 17 16 16 15 15 15 15 15 15 15
14 12 9 5 8 11 16 19 17 16 15 13 14 19 20 18 16 17 18 18 17 16 17 16 16 16 17 17 18 18 19 20 20 20 20 20 20 20 19 19 19 18 18 17 17 17 17 17 17
16 15 11 6 9 12 16 19 18 15 17 18 18 21 23 20 19 19 19 19 20 19 19 19 19 19 19 19 20 21 22 22 23 23 23 23 23 23 22 22 21 21 20 20 20 19 19 19 18
18 17 13 7 10 13 16 17 16 16 17 20 20 22 23 22 20 20 21 21 22 22 22 22 21 21 22 21 22 23 24 24 25 25 25 25 25 26 25 25 24 24 23 23 22 21 21 20 20
19 19 15 12 16 18 20 20 19 17 18 22 23 24 23 22 20 22 23 23 24 24 25 24 24 24 24 24 25 25 26 26 27 27 27 27 27 28 28 27 27 26 25 24 24 24 23 23 22
21 20 18 17 19 21 23 22 21 20 22 25 27 26 25 24 24 25 26 26 26 26 27 26 26 27 27 28 28 28 28 28 29 29 28 28 29 30 30 29 28 28 26 25 25 25 25 25 24
21 20 20 20 22 23 22 21 22 22 25 28 29 28 29 28 29 29 27 27 27 28 29 30 30 29 30 30 30 31 31 30 31 32 31 31 31 31 32 32 31 30 29 28 28 27 27 26 26
20 20 20 21 22 22 22 21 22 24 26 28 29 29 29 30 30 30 31 30 30 31 31 32 33 32 32 32 33 33 33 33 34 35 34 34 34 33 34 33 34 33 32 31 31 30 29 29 28
19 19 19 19 20 20 20 20 21 23 25 26 27 28 28 29 30 31 32 33 33 33 32 33 34 34 34 35 35 35 35 36 37 37 37 37 36 36 35 35 35 34 34 33 32 31 31 30 29
16 15 15 15 16 17 17 17 20 23 24 24 25 26 26 27 28 30 31 32 33 33 33 34 35 35 35 36 37 37 37 39 40 40 40 40 39 38 38 38 37 36 36 34 33 33 33 32 31
10 9 8 10 13 15 14 16 21 22 23 24 25 24 23 24 26 27 29 30 32 33 34 35 36 37 37 38 38 39 40 41 41 42 42 42 41 40 38 38 38 38 37 36 35 34 33 32 32
5 8 8 12 14 14 13 18 21 24 25 25 24 24 24 25 25 27 28 30 32 33 35 36 38 39 39 39 39 41 42 42 43 42 42 41 39 39 37 37 35 37 36 35 35 33 32 31 32
8 10 12 15 15 15 16 20 23 24 25 25 23 23 23 24 25 27 28 30 31 33 35 36 38 40 40 40 40 42 41 41 42 41 40 39 37 37 37 37 35 35 34 33 33 33 32 31 31
11 10 11 13 15 19 20 21 22 22 21 21 20 20 21 23 24 25 27 29 30 32 34 36 38 39 40 40 40 41 41 41 41 39 38 38 38 38 37 37 36 34 32 32 33 32 31 31 31
11 10 11 14 18 20 19 20 20 20 18 17 17 19 19 20 21 22 25 26 28 31 33 35 37 38 39 40 40 41 41 41 40 39 39 38 37 37 37 37 36 35 33 33 32 31 32 32 30
8 11 14 16 17 18 19 22 22 21 18 16 17 18 19 20 22 23 25 26 29 31 33 34 36 38 38 39 40 41 41 41 41 40 39 38 37 37 37 36 35 35 34 34 33 32 31 31 31
11 14 14 14 16 18 21 26 26 21 17 13 15 19 21 23 24 25 27 28 30 32 33 34 36 37 38 39 40 40 40 40 40 40 40 39 38 38 39 38 37 37 37 36 34 33 33 34 33
11 12 13 14 16 19 25 28 24 17 14 16 20 22 24 25 26 28 29 30 32 33 34 35 36 37 38 39 40 40 40 40 40 40 40 40 40 39 39 39 40 39 38 38 37 36 35 36 35
9 10 11 15 20 25 26 25 20 14 17 20 23 25 26 27 28 29 31 32 33 35 36 36 37 38 39 40 41 41 41 41 40 40 40 41 41 41 41 41 40 40 39 39 39 39 39 38 38
7 9 14 18 20 20 15 16 10 12 18 22 25 27 29 30 30 30 31 32 34 36 37 38 38 39 39 39 40 40 41 41 41 41 41 42 42 42 43 43 42 42 42 41 41 41 41 42 42
6 9 14 17 20 19 15 13 11 13 18 23 26 28 30 30 32 33 34 36 37 38 39 38 39 40 40 40 40 40 41 41 42 42 43 43 43 43 43 44 44 44 44 44 44 44 45 45 46
8 9 10 12 13 17 19 20 18 19 20 24 27 29 30 31 33 35 36 37 38 39 39 40 41 41 41 41 40 40 41 41 42 43 44 44 45 45 45 46 46 46 46 47 47 48 48 48 49
9 10 9 9 10 11 18 20 20 22 22 24 28 30 31 32 35 37 38 39 39 40 40 41 42 42 41 40 40 41 42 42 43 44 44 44 45 46 47 47 47 48 48 49 49 50 51 51 52
10 10 10 9 10 9 15 22 24 24 24 26 28 31 32 34 36 38 39 39 40 40 41 42 42 43 42 42 42 43 43 44 45 45 45 45 45 45 46 47 48 48 49 50 51 52 53 54 54
8 9 9 9 9 9 12 21 25 26 26 28 30 32 34 36 37 38 39 39 40 41 42 42 43 43 43 43 43 44 44 45 46 46 46 46 46 46 47 48 48 49 50 51 52 52 53 54 56

GEFSSGP_500_meanwind_096.txt.gz
Wind_Speed
3 4 4 3 3 2 3 6 8 8 8 8 8 6 7 8 7 7 8 8 8 8 8 9 9 8 8 9 9 8 8 7 7 7 8 8 8 9 9 9 9 9 10 9 9 8 7 6 6
0 1 1 2 3 1 2 5 6 9 10 10 10 9 8 7 7 7 8 8 8 9 9 9 9 9 9 9 9 8 8 8 8 8 8 8 9 9 9 10 9 10 10 10 10 9 8 7 6
2 1 1 1 2 2 3 4 5 9 11 13 14 13 12 9 8 9 9 9 9 9 10 10 10 10 10 9 9 9 9 9 9 9 9 9 9 10 10 11 10 10 10 11 11 11 10 9 8
5 3 2 3 3 2 3 3 4 8 13 15 17 16 14 11 11 11 12 11 10 10 10 10 10 11 11 10 10 10 10 11 11 10 10 10 10 11 11 12 11 11 11 11 11 12 11 10 9
7 6 4 5 5 4 4 5 5 8 13 16 18 19 16 14 13 13 13 12 12 11 10 10 11 11 11 11 11 11 12 12 12 12 12 12 12 12 13 13 13 13 13 13 13 13 13 13 12
10 8 6 6 5 4 3 6 9 12 16 18 19 20 19 17 16 15 14 14 13 12 11 11 12 12 12 12 12 13 13 13 13 13 13 13 13 14 14 14 14 14 14 14 15 15 15 14 14
13 10 7 7 6 5 3 6 10 14 18 20 21 21 21 19 17 15 15 15 15 14 13 12 12 12 13 13 14 14 14 14 14 14 14 15 15 15 15 16 16 15 16 16 15 16 16 16 16
16 12 10 10 10 8 7 9 12 16 19 22 22 23 23 22 20 18 16 16 16 15 14 15 14 13 13 14 14 15 15 15 16 16 16 16 16 16 16 17 17 17 17 17 17 17 17 17 17
19 14 12 13 14 12 12 13 15 18 21 23 25 26 26 25 22 20 18 18 18 17 17 16 15 15 15 15 16 16 17 17 17 17 18 17 17 17 18 18 19 19 19 19 19 19 18 19 19
21 16 14 17 18 17 16 16 17 20 23 25 27 29 29 27 25 23 22 21 20 20 20 18 17 17 17 18 18 19 19 20 19 20 20 20 19 19 20 20 20 21 21 20 20 21 21 21 21
22 18 16 19 20 20 19 19 19 23 26 28 30 30 29 28 28 26 26 24 22 22 21 20 20 20 20 21 21 22 22 22 22 23 23 23 22 22 22 22 22 22 22 22 21 22 23 23 24
23 20 18 19 22 22 22 21 22 25 27 29 30 30 30 30 29 29 28 25 24 23 23 23 23 23 24 23 24 23 23 24 25 26 26 26 25 25 25 25 25 25 25 24 24 24 24 24 26
24 21 19 19 21 21 22 23 24 26 27 28 29 29 30 30 30 30 29 27 26 24 24 24 25 26 25 25 26 25 25 27 28 29 29 29 28 28 28 27 28 28 28 27 26 26 26 25 26
22 20 18 17 17 18 20 20 22 23 24 25 27 28 28 29 29 29 28 28 26 26 26 26 27 27 27 27 28 27 28 30 30 30 30 30 30 30 31 30 30 30 30 29 28 28 27 27 27
18 16 14 13 13 14 16 18 19 19 22 23 24 26 27 28 28 27 27 27 25 25 26 26 27 28 29 28 29 29 30 31 32 31 31 30 31 31 32 31 31 32 31 30 29 27 27 27 28
13 11 10 10 10 12 16 17 18 19 21 22 24 25 26 27 26 25 25 26 25 26 27 27 28 29 28 29 31 31 31 32 33 33 33 34 34 34 33 32 32 32 31 30 29 27 27 27 27
8 9 9 9 10 13 16 18 20 20 21 22 23 24 24 25 25 25 26 25 25 25 26 27 28 29 29 30 31 32 33 34 35 35 36 35 34 34 33 33 34 32 31 30 30 29 28 27 28
8 8 8 7 11 14 18 21 23 23 24 23 24 23 21 21 21 23 24 23 23 24 25 26 28 29 30 31 32 33 34 35 35 36 36 36 36 35 35 34 33 32 31 31 31 30 29 28 28
7 6 7 9 13 16 20 24 26 25 24 23 22 21 18 17 18 19 19 21 22 24 25 26 27 29 30 31 33 34 35 36 37 36 36 37 37 37 36 35 33 32 32 31 32 31 31 29 29
7 7 10 13 15 18 21 24 25 24 24 24 20 19 16 16 15 16 17 19 21 23 25 27 28 30 31 33 34 35 36 36 36 37 37 37 37 37 37 36 35 34 33 33 33 32 32 31 32
6 8 10 12 14 17 19 22 24 25 26 25 21 18 13 12 13 15 17 19 21 23 25 26 28 30 32 33 34 35 36 37 37 38 38 38 37 37 37 37 36 35 35 34 33 32 32 32 32
8 10 11 14 16 20 21 24 25 26 25 22 19 11 8 10 13 15 17 19 21 22 23 25 27 29 31 33 34 35 36 37 37 38 38 37 37 37 37 37 36 36 35 35 34 32 32 33 33
10 11 12 14 16 19 21 24 25 22 20 18 13 7 8 11 14 16 18 20 22 23 25 27 28 30 32 33 34 35 36 36 37 37 37 36 36 36 36 36 35 35 35 35 34 34 34 35 35
8 10 11 12 14 16 17 19 17 13 11 11 9 7 10 13 16 18 19 21 23 25 26 28 29 31 32 33 34 34 35 35 36 35 35 35 35 35 35 35 35 34 35 35 35 35 35 35 35
7 8 9 11 12 12 13 13 13 13 11 9 10 11 13 15 18 20 22 24 25 27 28 29 30 31 31 32 33 34 34 34 35 34 35 35 35 35 35 36 36 36 36 36 36 36 37 37 37
7 7 7 8 9 10 10 11 13 13 12 11 13 15 17 18 21 23 25 27 29 30 31 31 31 31 32 33 34 35 35 36 36 36 36 37 37 37 37 37 37 37 37 37 38 38 38 39 38
5 6 7 8 9 10 10 10 12 14 14 14 16 18 20 23 25 26 28 30 32 33 33 34 34 34 35 36 36 37 37 37 37 38 38 39 39 39 39 39 39 40 40 40 40 40 40 40 40
7 7 7 7 8 9 9 11 13 14 16 18 19 21 23 26 27 29 31 33 34 35 36 37 38 38 38 38 38 38 38 38 39 39 39 40 40 40 40 41 41 41 42 42 42 42 42 43 42
6 7 7 8 8 10 12 13 15 16 18 20 22 24 27 29 30 32 33 35 37 38 39 40 40 40 40 40 39 39 39 39 39 40 40 40 40 41 42 42 42 42 43 43 43 43 44 44 44
4 6 7 8 9 11 14 15 16 18 20 22 25 27 29 31 32 34 36 38 39 40 40 41 41 41 42 41 40 40 40 40 40 39 39 40 40 41 42 42 43 43 44 44 45 46 46 46 46

GEFSSGP_500_meanwind_102.txt.gz
Wind_Speed
3 3 3 3 3 3 3 3 4 4 5 7 9 11 11 12 12 11 10 10 9 9 8 8 8 8 9 9 8 8 7 7 7 6 6 5 5 5 6 6 6 6 7 7 7 7 6 5 4
5 5 5 5 5 5 5 5 5 5 4 6 7 9 11 12 12 11 11 11 10 10 10 10 9 9 9 9 9 8 7 7 7 7 7 6 6 6 6 6 7 7 6 6 6 6 6 5 4
7 8 8 8 8 7 6 7 7 5 5 5 6 8 11 13 13 12 12 12 11 12 12 11 10 10 10 9 9 9 8 8 8 8 7 7 8 8 8 8 8 8 7 8 8 7 6 6 5
10 10 10 11 11 9 9 10 10 7 6 7 7 8 11 13 15 14 13 13 13 12 12 11 11 10 10 10 10 9 9 9 9 9 9 9 9 10 10 10 10 10 9 9 9 9 8 8 7
12 12 12 12 13 12 12 11 10 9 8 7 8 8 10 13 15 15 15 15 14 14 13 12 11 10 10 10 10 10 10 10 10 10 10 10 11 11 12 12 13 12 12 11 11 10 10 10 9
15 14 14 14 15 15 15 14 13 12 11 9 9 10 11 13 15 15 16 16 15 15 14 13 12 12 12 12 12 12 12 12 11 11 12 12 12 13 14 14 14 14 14 14 14 13 12 11 11
17 16 15 16 17 17 17 16 16 15 13 12 11 11 12 14 16 17 18 18 17 17 16 15 14 14 14 13 13 13 13 13 13 13 13 13 13 14 15 15 15 16 16 16 15 15 15 14 13
19 18 17 18 19 19 19 18 18 16 15 14 14 14 14 16 18 19 20 19 19 19 19 17 16 16 16 15 15 15 15 15 15 15 15 16 16 16 16 16 16 17 17 18 18 17 17 16 16
22 20 18 19 21 21 21 20 19 19 18 17 17 16 17 18 20 22 23 22 21 20 20 20 19 19 18 17 17 18 18 17 17 17 18 18 18 19 19 19 19 19 19 19 20 20 19 18 18
24 21 19 22 24 24 24 23 22 22 21 20 18 18 19 21 22 23 24 24 23 22 22 22 23 22 21 20 20 20 21 21 21 21 21 22 21 21 21 21 22 22 22 22 21 21 21 20 20
26 23 22 24 26 26 26 26 26 26 24 23 21 21 21 22 24 24 25 25 24 24 24 23 24 24 23 23 23 24 24 24 24 24 25 24 24 23 24 24 24 24 24 24 24 23 22 22 21
27 24 24 25 27 27 27 28 28 28 26 25 25 24 23 24 25 25 26 25 24 24 24 24 25 26 26 27 27 27 26 26 27 27 27 27 27 26 26 26 27 26 26 26 26 25 25 25 25
27 25 25 26 27 27 28 29 30 29 27 26 25 24 25 25 26 27 26 25 24 25 24 25 25 26 27 27 28 28 27 26 27 28 28 28 28 28 27 26 27 28 28 27 27 27 27 27 28
26 24 24 24 25 27 28 28 29 28 28 27 27 27 26 25 26 26 25 24 24 25 24 25 25 25 26 27 27 28 27 27 28 27 28 29 28 27 28 28 27 28 28 28 28 28 28 29 30
22 21 20 22 23 25 26 26 27 26 26 26 26 26 27 26 25 25 25 24 24 23 23 24 25 25 25 25 26 26 27 27 27 28 27 27 27 28 27 28 28 27 28 29 29 29 29 30 30
17 17 18 20 21 22 23 23 23 22 22 22 24 25 26 25 24 25 25 24 23 23 23 24 25 25 24 24 25 25 26 27 27 26 26 26 26 28 28 29 30 29 30 29 29 30 30 30 31
14 14 15 16 18 20 21 20 19 19 19 21 23 24 26 25 25 25 25 24 24 24 23 24 24 26 26 26 27 26 27 27 27 28 28 29 30 30 30 31 31 31 30 30 31 31 31 32 32
12 12 14 15 16 17 18 17 17 17 19 21 22 24 26 26 27 24 23 23 22 23 23 24 25 27 27 27 28 28 28 29 29 30 31 32 32 32 32 33 33 33 33 32 32 32 31 32 32
10 12 13 13 14 14 13 14 15 17 19 22 24 25 27 26 25 22 21 22 21 23 24 25 26 26 27 28 29 30 30 31 32 32 32 33 33 34 34 35 35 35 34 34 33 33 33 33 33
9 10 11 12 12 13 13 14 16 18 20 22 24 24 24 22 21 19 19 20 20 21 23 25 26 27 28 29 30 31 32 33 34 34 34 34 34 35 35 36 36 36 35 35 35 34 34 34 34
10 10 10 11 11 11 12 14 15 17 18 18 19 19 18 18 16 15 15 17 19 21 22 23 25 27 28 30 32 33 33 34 34 34 35 35 35 35 35 36 36 36 36 36 36 35 35 35 35
10 11 11 11 11 11 12 13 13 14 15 14 13 14 14 13 13 13 15 17 19 21 22 23 25 27 28 30 32 33 34 34 35 35 35 36 36 36 36 35 36 36 36 36 36 36 36 36 36
10 11 12 12 12 12 12 12 11 13 13 10 10 11 10 10 12 14 15 17 18 20 22 24 25 27 28 30 31 32 33 34 35 35 36 36 36 36 36 36 36 36 36 36 35 35 35 36 36
9 10 11 10 11 10 10 10 10 11 9 8 8 7 8 9 11 12 14 16 18 20 22 24 26 28 29 30 31 32 33 34 35 36 36 37 37 37 38 38 37 37 36 36 35 35 35 35 35
8 8 8 9 9 8 8 8 9 8 7 6 6 6 7 9 11 13 15 17 19 21 24 26 27 29 30 31 32 33 34 34 35 36 36 37 37 38 38 38 38 38 37 37 37 36 36 36 36
7 6 8 9 8 7 7 8 7 7 7 7 7 8 9 10 12 14 16 18 21 23 25 27 29 30 31 32 33 34 34 35 36 36 36 37 37 37 38 38 37 38 38 38 38 37 38 38 37
5 6 7 7 6 6 6 6 7 7 8 8 9 9 11 12 14 16 19 21 23 25 27 29 30 32 33 34 34 34 35 36 36 37 37 37 37 37 37 37 38 38 38 39 39 38 39 39 39
6 7 7 6 5 5 5 6 6 7 8 9 10 11 13 14 17 19 22 24 26 28 30 31 33 34 34 35 35 35 36 37 37 37 37 37 36 36 36 37 37 37 38 39 39 40 40 41 41
5 5 5 4 5 5 5 6 7 8 9 10 12 13 15 17 19 21 24 26 28 30 32 33 34 36 36 37 37 37 37 38 37 37 36 36 36 35 35 36 36 36 37 38 39 40 41 41 42
5 5 5 5 6 6 7 7 8 9 11 13 14 15 17 19 21 24 26 28 30 32 33 35 36 37 38 38 38 38 39 38 38 37 36 36 36 36 36 36 36 36 36 37 38 38 40 41 41

GEFSSGP_500_meanwind_108.txt.gz
Wind_Speed
6 5 5 4 5 5 4 5 4 4 3 4 4 4 4 5 5 5 5 6 6 6 6 6 6 7 7 7 7 8 7 6 5 4 3 3 2 2 2 1 1 1 0 0 0 0 0 1 1
7 7 6 5 5 4 7 7 6 6 5 5 4 4 4 5 5 5 5 6 7 7 7 7 7 8 8 8 8 8 7 7 6 6 5 5 4 4 4 4 3 3 3 3 2 2 2 2 2
8 8 8 8 7 8 10 9 8 7 6 7 5 5 5 5 5 5 5 6 7 7 8 8 8 9 9 9 9 9 8 8 8 8 7 7 7 6 6 6 6 6 6 6 5 5 4 4 4
11 11 11 10 11 12 11 10 10 9 8 8 8 7 7 7 6 6 6 7 7 8 8 9 9 10 10 10 10 10 10 10 10 10 9 9 9 8 8 8 8 8 9 9 8 8 7 7 6
13 13 13 13 14 15 13 13 12 11 11 11 10 9 9 8 8 8 8 9 9 9 9 10 11 12 12 12 12 12 12 12 12 11 11 11 10 10 10 10 10 11 11 11 10 10 10 9 8
15 15 15 15 18 18 17 15 14 14 14 13 12 11 10 9 9 10 10 11 11 11 11 12 13 14 14 14 14 15 15 15 14 14 14 13 13 12 12 12 12 12 12 13 12 12 12 12 11
18 18 19 19 20 21 20 17 17 16 16 15 14 14 13 12 12 12 12 13 13 13 14 14 15 15 15 16 16 17 17 17 16 16 16 15 15 15 15 15 15 14 14 14 14 14 14 14 13
21 22 21 22 22 24 23 21 20 19 18 17 17 16 15 15 15 15 15 16 17 17 17 17 17 17 17 18 18 18 19 18 18 18 18 17 17 18 17 17 17 16 16 16 16 15 15 15 15
24 24 24 24 25 26 25 23 22 20 20 20 19 18 18 17 17 18 19 19 19 20 20 20 21 20 20 21 21 21 21 21 21 21 21 20 20 20 20 19 19 18 18 18 18 17 17 16 16
26 26 26 27 27 27 27 26 24 22 22 22 20 20 19 19 20 21 21 21 22 23 23 22 23 23 23 24 24 24 24 24 24 24 24 22 23 23 22 22 22 22 20 20 20 20 20 20 19
26 27 28 28 28 28 27 27 25 24 25 24 22 21 20 20 21 21 22 23 24 24 24 23 24 24 25 25 26 25 25 26 26 25 24 25 24 23 24 24 24 23 23 22 21 21 22 23 22
25 26 27 27 28 27 27 26 26 26 26 25 24 22 22 22 21 22 23 25 25 25 25 25 25 25 26 26 26 26 26 26 25 25 24 25 25 25 25 26 25 25 24 23 23 22 23 23 23
21 22 24 25 26 26 25 25 26 26 25 25 24 23 23 23 23 24 25 26 26 26 26 26 27 26 26 25 24 24 24 24 24 24 24 24 26 26 25 24 25 25 26 26 26 25 24 24 23
17 18 19 20 22 23 23 23 23 24 24 24 23 24 24 24 24 25 25 25 27 28 27 27 25 24 24 23 22 22 23 23 24 23 23 23 25 25 25 25 26 26 26 27 27 27 25 24 24
14 14 15 16 18 19 19 20 19 20 21 22 22 22 23 23 23 24 24 25 26 26 26 26 24 22 21 22 23 23 23 23 23 24 24 24 25 25 24 25 25 26 26 25 25 25 25 25 25
10 10 10 12 13 14 15 16 17 17 18 19 20 20 21 21 22 23 23 23 22 23 23 22 21 21 20 20 21 21 21 21 23 24 23 24 25 24 24 25 25 25 26 26 24 24 25 27 27
9 7 8 10 10 10 11 13 14 15 15 17 18 19 20 20 21 22 22 22 22 21 21 20 20 19 19 19 19 20 20 21 22 22 23 24 24 24 25 26 26 26 26 26 26 26 27 27 29
6 6 6 8 8 8 9 11 13 14 15 17 19 19 20 21 20 21 20 21 21 20 20 19 18 18 18 19 20 21 22 22 22 23 23 24 24 25 26 27 27 27 28 28 29 29 29 30 30
5 4 5 7 7 7 8 10 12 14 15 16 17 18 19 19 18 18 18 18 18 18 17 17 17 17 19 20 21 22 23 23 24 24 24 25 25 26 27 27 28 29 29 30 31 31 31 31 32
5 4 5 7 7 8 9 11 12 13 13 15 16 16 17 17 16 16 16 16 16 17 17 16 16 18 20 21 22 23 24 24 24 24 25 25 26 27 28 29 29 30 31 31 32 33 33 33 33
4 5 6 8 8 8 9 9 10 11 13 14 13 13 13 13 13 13 13 13 14 15 16 16 17 19 21 21 22 23 24 25 26 26 26 27 27 27 28 29 30 31 31 32 33 34 34 35 35
5 5 7 8 8 8 9 10 10 10 10 10 10 9 10 11 11 11 13 13 14 15 16 17 19 20 21 22 24 25 26 27 28 28 28 28 29 29 30 30 31 32 33 33 34 35 35 36 36
6 6 6 7 8 9 8 8 9 9 9 8 8 9 9 10 11 12 13 13 14 15 17 18 20 21 22 24 25 26 27 28 29 29 29 30 30 31 31 32 32 33 34 34 34 35 36 36 36
6 6 6 6 6 7 7 7 9 8 8 9 9 9 9 10 10 11 12 13 15 17 19 20 22 23 24 25 26 27 28 29 29 30 30 31 31 32 32 33 33 34 35 35 36 36 36 37 37
6 6 6 6 6 7 7 7 8 7 7 8 8 8 9 9 11 12 13 15 16 18 20 22 23 24 25 27 27 28 29 29 30 31 31 32 33 33 33 34 34 34 35 35 36 36 37 37 37
6 5 5 5 6 7 7 7 8 7 7 7 7 8 9 10 12 13 14 16 18 19 21 23 24 25 26 27 28 29 29 30 30 31 31 32 33 34 34 34 34 34 34 35 36 36 37 37 38
7 6 6 5 5 6 7 7 7 7 7 7 8 9 10 12 13 15 16 17 19 21 22 23 25 26 27 28 28 28 29 30 31 31 32 32 32 33 33 33 34 35 35 36 36 37 37 37 38
7 6 5 3 4 4 7 8 8 8 8 9 9 10 12 13 15 16 17 18 20 21 23 24 25 26 27 27 28 29 29 30 30 31 32 32 32 33 33 34 34 35 36 37 37 37 38 38 38
6 6 4 4 4 2 6 8 8 8 9 9 10 12 13 14 15 16 17 19 20 21 23 24 25 26 27 27 28 29 30 31 31 32 32 33 33 33 33 34 35 36 36 37 37 38 38 38 38
6 6 5 4 5 4 4 9 8 9 10 10 11 13 14 15 16 17 18 19 20 21 23 24 25 26 27 28 29 30 31 32 32 33 33 34 34 34 34 35 35 36 36 36 36 37 37 38 38

GEFSSGP_500_meanwind_114.txt.gz
Wind_Speed
6 6 5 4 4 3 2 2 5 6 5 6 7 7 7 7 8 8 7 8 7 7 7 7 7 7 7 7 7 7 8 8 8 8 9 9 8 8 8 8 7 7 6 5 4 3 3 2 2
6 6 6 6 6 8 6 3 6 8 8 8 9 9 9 7 8 9 9 9 9 8 8 8 8 8 8 8 8 8 9 9 10 10 10 10 10 9 9 9 9 8 8 7 6 5 5 4 4
8 8 8 7 7 8 10 9 9 8 10 9 11 11 10 9 10 10 10 10 10 10 9 8 9 9 9 9 10 10 10 11 11 11 11 11 11 11 10 10 10 10 9 9 9 8 7 7 6
11 10 10 9 7 9 12 13 10 8 11 11 13 12 9 9 10 10 10 11 10 10 10 10 11 11 11 11 12 12 12 12 12 12 12 13 13 13 12 12 11 11 11 11 10 10 9 9 8
14 13 13 12 12 15 15 14 12 10 12 13 15 14 12 10 11 11 11 11 10 10 12 12 13 12 12 13 13 13 14 14 14 14 15 14 15 15 14 13 13 13 13 13 12 12 11 10 10
16 15 15 13 16 17 19 18 16 14 13 15 16 15 15 12 11 11 12 12 12 11 13 13 14 14 14 15 15 15 15 15 16 16 17 16 16 16 16 16 15 15 14 14 14 13 13 12 12
19 18 17 14 17 21 22 21 19 18 15 17 17 19 18 13 11 12 14 15 15 14 15 15 16 16 16 17 17 17 17 17 18 18 18 18 18 18 17 17 17 17 16 15 15 15 14 14 14
20 21 18 16 15 20 24 24 22 19 21 20 21 22 18 14 12 14 15 17 17 16 17 17 17 18 18 19 19 19 20 20 20 19 20 20 20 20 20 20 20 19 18 17 17 17 17 16 15
22 22 19 16 16 19 26 25 22 20 23 23 22 24 22 18 15 16 17 18 19 19 18 19 19 19 19 20 21 21 21 22 21 22 22 22 22 22 22 22 21 20 18 18 19 18 18 17 17
21 22 20 19 21 22 25 24 21 19 21 23 23 22 21 21 19 18 19 19 20 20 20 20 21 21 21 21 22 23 23 23 23 24 24 24 24 23 23 23 21 20 19 19 19 20 19 19 18
20 21 22 24 25 27 27 24 22 20 22 24 22 18 19 20 20 20 20 19 19 21 22 22 22 23 23 23 23 23 24 23 22 23 24 25 24 23 23 21 20 21 21 20 20 21 21 20 20
18 19 20 23 25 26 26 26 24 23 27 27 22 17 18 20 22 20 18 19 21 22 23 23 24 24 24 23 23 22 22 22 23 22 21 22 22 23 22 21 20 19 19 20 20 21 21 21 21
15 15 17 19 20 23 24 26 25 24 25 25 25 23 20 21 21 20 21 20 21 22 23 23 23 24 23 23 21 21 22 23 23 22 21 21 21 21 21 21 20 20 19 19 20 21 22 22 22
12 13 14 15 16 19 21 22 23 25 23 23 22 21 21 21 20 19 20 21 23 24 23 24 24 23 23 22 21 20 21 21 22 21 21 21 20 21 21 20 20 21 21 21 22 22 22 23 23
11 11 11 12 13 14 17 19 21 21 19 19 20 20 21 22 22 21 21 22 23 23 24 24 23 22 22 22 20 20 21 21 21 21 20 21 21 20 20 21 21 21 22 22 22 22 21 22 22
11 12 12 11 11 12 14 18 18 17 15 16 17 19 20 20 21 21 22 22 23 23 23 22 21 21 22 21 19 19 20 21 20 20 20 20 21 22 22 22 23 23 24 23 23 22 22 22 22
13 15 14 10 9 11 14 15 14 11 12 14 16 17 18 17 19 20 21 21 21 20 20 20 20 20 21 19 18 17 18 19 19 20 20 21 21 22 22 22 22 23 23 23 23 23 24 24 24
12 14 14 10 9 10 12 9 7 6 9 13 14 16 18 18 18 19 18 17 17 17 18 19 19 20 19 17 17 17 18 19 19 20 20 21 22 23 23 23 23 23 24 24 25 25 25 26 26
11 11 11 9 8 9 9 8 7 7 9 12 13 14 15 15 16 16 15 15 16 17 17 17 17 17 16 16 17 18 19 20 20 21 21 21 22 23 24 24 25 25 25 26 27 27 27 28 28
9 12 11 10 8 8 8 8 7 5 9 11 11 12 11 11 12 13 14 15 15 14 14 14 15 15 15 16 18 19 21 22 22 22 22 23 23 23 24 25 26 26 27 27 28 28 29 30 31
11 11 9 9 9 8 7 6 7 5 7 6 7 9 10 10 11 12 13 13 12 11 12 13 14 14 16 17 18 20 21 22 22 22 23 23 23 24 25 25 26 27 28 28 29 29 30 31 32
10 9 8 9 12 11 10 7 5 6 7 6 6 6 6 7 8 9 9 9 10 11 12 13 14 15 17 18 20 21 21 22 23 23 24 24 24 25 25 26 26 28 29 29 30 30 31 31 31
9 9 8 11 14 13 10 8 6 5 5 5 4 5 6 6 7 7 9 10 11 12 12 13 15 17 18 19 21 22 23 24 24 24 24 25 25 25 26 26 27 29 30 30 31 31 32 32 32
8 9 11 13 14 10 7 9 9 6 4 3 3 5 5 6 7 8 9 11 12 13 13 15 16 18 19 20 22 23 24 24 24 25 25 25 26 26 26 27 28 29 30 30 31 31 32 33 33
9 10 13 15 10 5 6 7 7 8 7 7 7 7 7 8 9 10 10 11 13 14 15 17 18 19 21 22 23 24 25 25 25 25 26 27 27 28 28 29 29 30 30 31 31 31 32 33 34
9 9 12 13 12 6 6 9 8 8 8 8 9 9 9 9 10 10 11 13 14 15 16 18 19 21 22 23 23 24 25 25 26 27 27 28 29 30 30 31 31 31 31 31 32 32 33 33 34
8 7 9 11 11 5 4 8 6 7 7 7 8 9 10 11 11 12 13 14 15 17 18 19 20 21 22 23 24 25 26 27 27 28 28 29 30 31 31 31 32 32 32 32 32 33 33 34 35
7 6 5 7 11 10 7 7 10 10 9 9 10 11 12 12 13 14 14 16 17 18 19 20 21 22 23 24 25 26 27 27 27 28 29 30 31 31 32 32 32 32 32 33 33 34 34 35 35
7 6 7 6 6 9 9 11 12 12 11 10 11 12 12 13 13 13 14 16 17 18 19 20 21 22 23 24 26 27 28 28 28 29 29 30 31 32 32 32 33 33 32 33 33 34 34 34 35
7 7 6 6 3 3 9 12 12 12 11 11 12 13 13 14 14 14 15 16 18 19 20 21 21 23 24 25 26 27 28 29 29 30 30 31 32 33 33 34 34 33 33 34 34 33 33 34 34